EI7IX Weather Reports


time (UTC)temp
C
wind
direction
speed
KPH
gust
KPH
rain 1hr
cm
rain 24hr
cm
rain mn
cm
humidity
%
barometer
mb
20260508052004 6 232 0.0 0.0 0.00 0.56 0.00 97 1018.0
20260508051004 6 226 0.0 0.0 0.00 0.56 0.00 97 1017.9
20260508050503 6 220 0.0 0.0 0.00 0.56 0.00 97 1018.0
20260508045503 6 232 0.0 0.0 0.00 0.56 0.00 96 1018.0
20260508045004 6 215 0.0 1.6 0.00 0.56 0.00 96 1018.0
20260508043504 6 217 0.0 1.6 0.00 0.56 0.00 96 1017.6
20260508043003 6 210 1.6 1.6 0.00 0.56 0.00 96 1017.6
20260508042003 6 225 0.0 0.0 0.00 0.56 0.00 96 1017.6
20260508041504 6 233 0.0 0.0 0.00 0.56 0.00 96 1017.6
20260508041004 6 229 0.0 0.0 0.00 0.56 0.00 96 1017.6
20260508040504 7 227 0.0 0.0 0.00 0.56 0.00 96 1017.6
20260508040004 7 218 0.0 0.0 0.00 0.56 0.00 95 1017.6
20260508035503 7 208 0.0 1.6 0.00 0.56 0.00 95 1017.6
20260508035004 7 223 0.0 1.6 0.00 0.56 0.00 95 1017.6
20260508034503 6 211 0.0 0.0 0.00 0.56 0.00 95 1017.5
20260508034004 6 246 0.0 0.0 0.00 0.56 0.00 95 1017.6
20260508033504 6 246 0.0 0.0 0.00 0.56 0.00 95 1017.5
20260508033004 7 246 0.0 0.0 0.00 0.56 0.00 95 1017.6
20260508032503 7 249 0.0 0.0 0.00 0.56 0.00 95 1017.6
20260508032004 7 246 0.0 0.0 0.00 0.56 0.00 95 1017.3
20260508031003 7 246 0.0 0.0 0.00 0.56 0.00 95 1017.6
20260508030503 7 247 0.0 0.0 0.00 0.56 0.00 95 1017.4
20260508030004 7 244 0.0 0.0 0.00 0.56 0.00 95 1017.5
20260508025504 7 239 0.0 0.0 0.00 0.56 0.00 95 1017.3
20260508024503 7 243 0.0 0.0 0.00 0.56 0.00 94 1017.6
20260508024003 7 244 0.0 0.0 0.00 0.56 0.00 94 1017.4
20260508023503 7 243 0.0 0.0 0.00 0.56 0.00 94 1017.5
20260508023003 7 239 0.0 0.0 0.00 0.56 0.00 94 1017.2
20260508022504 7 238 0.0 0.0 0.00 0.56 0.00 94 1017.3
20260508022004 7 239 0.0 0.0 0.00 0.56 0.00 94 1017.2
20260508021503 7 240 0.0 0.0 0.00 0.56 0.00 94 1017.0
20260508021004 7 222 0.0 0.0 0.00 0.56 0.00 94 1017.3
20260508020503 7 225 0.0 0.0 0.00 0.56 0.00 94 1016.9
20260508020003 7 237 0.0 0.0 0.00 0.56 0.00 94 1017.0
20260508015503 7 238 0.0 0.0 0.00 0.56 0.00 94 1016.9
20260508015005 7 238 0.0 0.0 0.00 0.56 0.00 94 1016.9
20260508014504 7 237 0.0 0.0 0.00 0.56 0.00 94 1017.2
20260508014004 7 237 0.0 0.0 0.00 0.56 0.00 94 1016.9
20260508013504 7 237 0.0 0.0 0.00 0.56 0.00 94 1016.9
20260508012503 7 237 0.0 0.0 0.00 0.56 0.00 94 1016.9
20260508012004 7 236 0.0 0.0 0.00 0.56 0.00 94 1016.9
20260508011504 7 237 0.0 0.0 0.00 0.56 0.00 93 1016.9
20260508011004 7 236 0.0 0.0 0.00 0.56 0.00 93 1016.9
20260508010504 7 233 0.0 0.0 0.00 0.56 0.00 93 1016.9
20260508010004 7 233 0.0 0.0 0.00 0.56 0.00 93 1016.9
20260508005504 8 233 0.0 0.0 0.00 0.56 0.00 93 1016.9
20260508004504 8 233 0.0 0.0 0.00 0.56 0.00 93 1016.9
20260508004004 8 233 0.0 0.0 0.00 0.56 0.00 93 1016.9
20260508003504 7 237 0.0 0.0 0.00 0.56 0.00 93 1016.9
20260508003003 7 232 0.0 0.0 0.00 0.56 0.00 93 1016.9
20260508002504 8 230 0.0 1.6 0.00 0.56 0.00 92 1016.9
20260508002004 8 221 0.0 1.6 0.00 0.56 0.00 92 1016.9
20260508001004 8 229 0.0 0.0 0.00 0.56 0.00 92 1016.9
20260508000504 8 233 0.0 0.0 0.00 0.56 0.00 92 1016.9
20260508000004 8 233 0.0 0.0 0.00 0.56 0.00 92 1016.9
20260507235503 8 255 0.0 0.0 0.00 0.56 0.00 91 1016.9
20260507235004 7 257 0.0 0.0 0.00 0.56 0.00 92 1016.9
20260507234504 7 259 0.0 0.0 0.00 0.56 0.00 92 1016.9
20260507234004 8 257 0.0 0.0 0.00 0.56 0.00 92 1016.6
20260507233505 8 256 0.0 0.0 0.00 0.56 0.00 92 1016.9
20260507233003 8 261 0.0 1.6 0.00 0.56 0.00 92 1016.7
20260507232003 8 256 0.0 1.6 0.00 0.56 0.00 92 1016.9
20260507231504 8 262 0.0 1.6 0.00 0.56 0.00 92 1016.9
20260507231003 8 255 0.0 1.6 0.00 0.56 0.00 92 1016.9
20260507230504 8 257 0.0 1.6 0.00 0.56 0.00 92 1016.7
20260507230004 8 257 0.0 1.6 0.00 0.56 0.00 92 1016.9
20260507225503 8 257 0.0 1.6 0.00 0.56 0.56 93 1016.6
20260507225004 8 270 1.6 1.6 0.00 0.56 0.56 93 1016.5
20260507224504 8 259 0.0 3.2 0.00 0.56 0.56 93 1016.6
20260507224003 8 265 1.6 3.2 0.00 0.56 0.56 93 1016.6
20260507223003 8 271 1.6 3.2 0.00 0.56 0.56 93 1016.5
20260507222503 8 277 0.0 3.2 0.00 0.56 0.56 93 1016.5
20260507222004 8 267 1.6 3.2 0.00 0.56 0.56 93 1016.6
20260507221503 8 255 0.0 4.8 0.00 0.56 0.56 93 1016.6
20260507221004 8 256 0.0 4.8 0.00 0.56 0.56 93 1016.3
20260507220504 8 271 0.0 3.2 0.00 0.56 0.56 93 1016.3
20260507220003 8 251 0.0 4.8 0.00 0.56 0.56 93 1016.3
20260507215004 8 263 0.0 1.6 0.00 0.56 0.56 93 1016.3
20260507214503 8 230 0.0 0.0 0.00 0.56 0.56 93 1016.3
20260507214003 8 238 0.0 0.0 0.00 0.56 0.56 93 1016.3
20260507213004 8 221 0.0 1.6 0.00 0.56 0.56 93 1016.3
20260507212504 8 236 0.0 1.6 0.00 0.56 0.56 92 1016.3
20260507212004 8 217 1.6 3.2 0.00 0.56 0.56 92 1016.3
20260507211503 8 217 1.6 4.8 0.00 0.56 0.56 92 1016.2
20260507210504 8 179 1.6 4.8 0.00 0.56 0.56 92 1016.2
20260507210004 8 192 0.0 3.2 0.00 0.56 0.56 92 1016.3
20260507205505 8 214 1.6 3.2 0.00 0.56 0.56 92 1016.0
20260507205003 8 203 0.0 3.2 0.00 0.56 0.56 92 1016.2
20260507204504 8 222 1.6 3.2 0.00 0.56 0.56 92 1016.2
20260507203504 8 195 0.0 1.6 0.03 0.56 0.56 92 1015.9
20260507203003 8 231 0.0 1.6 0.03 0.56 0.56 92 1015.9
20260507202503 8 222 0.0 1.6 0.03 0.56 0.56 92 1015.6
20260507202004 8 221 0.0 1.6 0.03 0.56 0.56 93 1015.7
20260507201505 8 223 0.0 1.6 0.03 0.56 0.56 93 1015.6
20260507201003 8 238 0.0 3.2 0.03 0.56 0.56 93 1015.6
20260507200503 8 221 1.6 4.8 0.03 0.56 0.56 93 1015.6
20260507200004 8 211 1.6 4.8 0.03 0.56 0.56 93 1015.3
20260507195504 8 222 0.0 3.2 0.03 0.56 0.56 93 1015.5
20260507195004 8 226 0.0 3.2 0.03 0.56 0.56 93 1015.6
20260507194504 8 245 0.0 3.2 0.03 0.56 0.56 93 1015.6
20260507194003 8 256 0.0 3.2 0.03 0.56 0.56 93 1015.5
20260507193503 8 259 0.0 4.8 0.00 0.53 0.53 94 1015.5
20260507193004 8 259 1.6 4.8 0.00 0.53 0.53 94 1015.3
20260507192504 8 267 1.6 4.8 0.00 0.53 0.53 93 1015.3
20260507192004 8 268 1.6 8.0 0.00 0.53 0.53 94 1015.3
20260507191503 8 306 3.2 8.0 0.00 0.53 0.53 94 1015.3
20260507191004 8 300 3.2 8.0 0.00 0.53 0.53 94 1015.3
20260507190504 8 277 1.6 4.8 0.00 0.53 0.53 94 1015.3
20260507190004 8 276 3.2 8.0 0.00 0.53 0.53 93 1015.3
20260507185503 8 296 3.2 11.3 0.00 0.53 0.53 93 1015.3
20260507185004 8 292 3.2 11.3 0.03 0.53 0.53 94 1015.3
20260507184004 8 303 1.6 9.7 0.03 0.53 0.53 93 1014.9
20260507183504 8 327 3.2 9.7 0.03 0.53 0.53 93 1015.2
20260507182503 8 320 3.2 9.7 0.05 0.53 0.53 93 1015.3
20260507182004 8 266 3.2 11.3 0.05 0.53 0.53 93 1014.9
20260507181003 8 271 4.8 12.9 0.05 0.53 0.53 92 1014.9
20260507180503 8 270 4.8 12.9 0.05 0.53 0.53 92 1014.9
20260507175504 9 294 3.2 12.9 0.05 0.53 0.53 92 1014.9
20260507174503 9 275 3.2 16.1 0.03 0.51 0.51 91 1014.9
20260507174003 9 308 4.8 19.3 0.03 0.51 0.51 90 1014.8
20260507173504 10 268 8.0 19.3 0.03 0.51 0.51 89 1014.7
20260507173004 10 248 4.8 11.3 0.00 0.48 0.48 89 1014.6
20260507172504 10 274 3.2 11.3 0.00 0.48 0.48 88 1014.6
20260507172003 10 240 4.8 12.9 0.00 0.48 0.48 88 1014.6
20260507171504 10 267 3.2 12.9 0.00 0.48 0.48 88 1014.6
20260507171005 9 253 4.8 12.9 0.00 0.48 0.48 88 1014.6
20260507170503 9 264 6.4 12.9 0.00 0.48 0.48 89 1014.8
20260507170005 10 259 4.8 9.7 0.00 0.48 0.48 90 1014.6
20260507165003 10 231 4.8 12.9 0.00 0.48 0.48 90 1014.6
20260507164504 10 235 6.4 12.9 0.00 0.48 0.48 91 1014.6
20260507164004 10 270 8.0 12.9 0.00 0.48 0.48 91 1014.6
20260507163503 10 280 4.8 19.3 0.00 0.48 0.48 91 1014.6
20260507163003 10 302 3.2 19.3 0.00 0.48 0.48 92 1014.6
20260507162503 10 259 3.2 19.3 0.00 0.48 0.48 92 1014.6
20260507162004 10 260 8.0 16.1 0.03 0.48 0.48 92 1014.6
20260507161503 10 297 3.2 14.5 0.08 0.48 0.48 93 1014.6
20260507161003 10 285 3.2 14.5 0.10 0.48 0.48 93 1014.2
20260507160504 10 254 8.0 14.5 0.15 0.48 0.48 93 1014.6
20260507160003 10 285 3.2 14.5 0.23 0.48 0.48 93 1014.2
20260507155503 10 237 4.8 14.5 0.28 0.48 0.48 93 1014.2
20260507154504 10 293 4.8 16.1 0.30 0.48 0.48 94 1014.3
20260507154004 10 293 4.8 16.1 0.30 0.48 0.48 93 1014.2
20260507153504 10 252 3.2 11.3 0.30 0.48 0.48 93 1014.5
20260507153004 10 280 1.6 11.3 0.33 0.48 0.48 93 1014.6
20260507152504 10 270 3.2 14.5 0.36 0.48 0.48 93 1014.2
20260507152003 10 264 4.8 16.1 0.33 0.46 0.46 93 1014.2
20260507151504 10 294 3.2 16.1 0.28 0.41 0.41 92 1014.5
20260507151004 10 258 4.8 16.1 0.25 0.38 0.38 92 1014.6
20260507150504 10 255 4.8 16.1 0.20 0.33 0.33 92 1014.5
20260507145504 10 283 6.4 19.3 0.08 0.20 0.20 91 1014.5
20260507145004 10 274 8.0 16.1 0.05 0.18 0.18 90 1014.2
20260507144505 11 262 4.8 11.3 0.05 0.18 0.18 90 1014.2
20260507144003 11 282 3.2 12.9 0.05 0.18 0.18 90 1014.2
20260507143503 10 277 3.2 12.9 0.05 0.18 0.18 89 1014.5
20260507143004 10 311 3.2 16.1 0.03 0.15 0.15 88 1014.2
20260507142504 11 312 4.8 16.1 0.03 0.13 0.13 87 1014.3
20260507141503 11 265 4.8 9.7 0.03 0.13 0.13 85 1014.6
20260507141004 11 261 3.2 16.1 0.03 0.13 0.13 85 1014.6
20260507140005 11 217 4.8 16.1 0.03 0.13 0.13 85 1014.3
20260507135504 11 257 3.2 11.3 0.03 0.13 0.13 86 1014.2
20260507134503 11 196 4.8 12.9 0.05 0.13 0.13 85 1014.6
20260507133003 11 263 4.8 14.5 0.10 0.13 0.13 85 1014.3
20260507131503 12 227 1.6 8.0 0.10 0.10 0.10 87 1014.5
20260507131004 12 265 3.2 8.0 0.10 0.10 0.10 87 1014.6
20260507130504 12 270 1.6 11.3 0.10 0.10 0.10 89 1014.6
20260507130004 11 272 1.6 11.3 0.10 0.10 0.10 89 1014.6
20260507125503 11 262 3.2 11.3 0.10 0.10 0.10 88 1014.6
20260507125004 10 275 3.2 22.5 0.10 0.10 0.10 87 1014.6
20260507124504 10 236 3.2 22.5 0.08 0.08 0.08 86 1014.6
20260507124003 11 228 8.0 22.5 0.03 0.03 0.03 85 1014.6
20260507123503 11 267 3.2 12.9 0.03 0.03 0.03 86 1014.6
20260507123004 11 329 3.2 12.9 0.03 0.03 0.03 86 1014.3
20260507122504 11 264 4.8 12.9 0.03 0.03 0.03 85 1014.6
20260507122004 11 249 3.2 9.7 0.00 0.00 0.00 84 1014.6
20260507121504 11 346 3.2 9.7 0.00 0.00 0.00 84 1014.2
20260507121004 11 298 3.2 9.7 0.00 0.00 0.00 83 1014.5
20260507120004 11 315 1.6 11.3 0.00 0.00 0.00 82 1014.6
20260507115504 11 320 3.2 11.3 0.00 0.00 0.00 81 1014.6
20260507115003 12 257 3.2 11.3 0.00 0.00 0.00 79 1014.6
20260507114503 11 238 3.2 12.9 0.00 0.00 0.00 78 1014.6
20260507114003 12 249 1.6 12.9 0.00 0.00 0.00 78 1014.6
20260507113503 11 240 3.2 12.9 0.00 0.00 0.00 77 1014.6
20260507113004 12 261 4.8 14.5 0.00 0.00 0.00 76 1014.6
20260507112504 12 238 0.0 14.5 0.00 0.00 0.00 77 1014.6
20260507111504 12 262 3.2 12.9 0.00 0.00 0.00 73 1014.5
20260507110004 12 128 3.2 16.1 0.00 0.00 0.00 72 1014.6
20260507105503 12 265 3.2 16.1 0.00 0.00 0.00 73 1014.6
20260507105004 12 262 3.2 16.1 0.00 0.00 0.00 74 1014.6
20260507104504 12 199 3.2 16.1 0.00 0.00 0.00 75 1014.6
20260507104003 12 190 4.8 14.5 0.00 0.00 0.00 75 1014.6
20260507103503 12 210 3.2 16.1 0.00 0.00 0.00 73 1014.6
20260507103004 12 147 4.8 16.1 0.00 0.00 0.00 72 1014.6
20260507102504 12 165 4.8 14.5 0.00 0.00 0.00 72 1014.3
20260507102003 12 240 4.8 14.5 0.00 0.00 0.00 72 1014.6
20260507101504 12 209 3.2 12.9 0.00 0.00 0.00 72 1014.2
20260507101004 12 139 8.0 14.5 0.00 0.00 0.00 69 1014.3
20260507100504 12 224 4.8 14.5 0.00 0.00 0.00 71 1014.2
20260507100004 12 236 4.8 16.1 0.00 0.00 0.00 72 1014.2
20260507095504 12 191 3.2 19.3 0.00 0.00 0.00 71 1014.2
20260507095004 12 188 4.8 20.9 0.00 0.00 0.00 70 1014.1
20260507094504 12 179 8.0 20.9 0.00 0.00 0.00 70 1014.0
20260507094003 12 244 3.2 12.9 0.00 0.00 0.00 70 1014.2
20260507093504 12 228 3.2 16.1 0.00 0.00 0.00 70 1014.2
20260507093004 12 254 1.6 16.1 0.00 0.00 0.00 72 1014.2
20260507092004 11 185 4.8 14.5 0.00 0.00 0.00 72 1014.5
20260507091503 11 153 4.8 14.5 0.00 0.00 0.00 74 1014.2
20260507091003 11 237 4.8 14.5 0.00 0.00 0.00 76 1014.5
20260507090504 11 183 8.0 14.5 0.00 0.00 0.00 76 1014.2
20260507090004 12 218 4.8 14.5 0.00 0.00 0.00 76 1014.2
20260507085503 11 172 4.8 12.9 0.00 0.00 0.00 78 1014.2
20260507085003 10 188 3.2 12.9 0.00 0.00 0.00 80 1014.2
20260507084503 10 198 6.4 12.9 0.00 0.00 0.00 81 1014.2
20260507084003 10 218 1.6 9.7 0.00 0.00 0.00 83 1014.2
20260507083504 10 201 4.8 9.7 0.00 0.00 0.00 83 1014.2
20260507083004 10 201 4.8 9.7 0.00 0.00 0.00 83 1014.2
20260507082503 10 162 3.2 9.7 0.00 0.00 0.00 84 1014.6
20260507082004 10 192 3.2 8.0 0.00 0.00 0.00 84 1014.6
20260507081504 10 214 1.6 8.0 0.00 0.00 0.00 85 1014.6
20260507081003 10 171 1.6 8.0 0.00 0.00 0.00 85 1014.6
20260507080504 10 193 0.0 9.7 0.00 0.00 0.00 86 1014.6
20260507080004 9 232 1.6 9.7 0.00 0.00 0.00 85 1014.6
20260507075504 9 226 3.2 9.7 0.00 0.00 0.00 85 1014.6
20260507074004 9 283 4.8 8.0 0.00 0.00 0.00 82 1014.6
20260507073504 9 173 1.6 8.0 0.00 0.00 0.00 82 1014.6
20260507073004 9 213 1.6 4.8 0.00 0.00 0.00 82 1014.6
20260507072503 9 172 1.6 4.8 0.00 0.00 0.00 80 1014.6
20260507071504 9 203 1.6 8.0 0.00 0.00 0.00 81 1014.6
20260507071004 9 194 1.6 9.7 0.00 0.00 0.00 81 1014.6
20260507070007 9 189 4.8 9.7 0.00 0.00 0.00 82 1014.6
20260507065504 8 205 1.6 9.7 0.00 0.00 0.00 82 1014.3
20260507065003 8 172 4.8 9.7 0.00 0.00 0.00 83 1014.3
20260507064503 8 197 3.2 9.7 0.00 0.00 0.00 83 1014.2
20260507064003 7 202 3.2 8.0 0.00 0.00 0.00 84 1014.2
20260507063503 7 186 1.6 11.3 0.00 0.00 0.00 84 1014.2
20260507063004 7 176 3.2 11.3 0.00 0.00 0.00 84 1014.2
20260507062004 7 174 3.2 4.8 0.00 0.00 0.00 84 1014.3
20260507061503 7 185 3.2 4.8 0.00 0.00 0.00 84 1014.5
20260507061004 7 204 1.6 8.0 0.00 0.00 0.00 84 1014.6
20260507060503 7 162 1.6 8.0 0.00 0.00 0.00 84 1014.6
20260507060004 7 205 1.6 8.0 0.00 0.00 0.00 83 1014.6
20260507055503 7 210 3.2 9.7 0.00 0.00 0.00 83 1014.5
20260507055004 7 176 3.2 9.7 0.00 0.00 0.00 83 1014.6
20260507054504 7 176 1.6 9.7 0.00 0.00 0.00 83 1014.2
20260507054004 7 194 3.2 8.0 0.00 0.00 0.00 83 1014.6
20260507053503 6 184 4.8 8.0 0.00 0.00 0.00 84 1014.6
20260507052504 6 191 3.2 8.0 0.00 0.00 0.00 84 1014.5